FW5818 Weather Reports


Display with metric or nautical units.
time (UTC)temp
F
wind
direction
speed
MPH
gust
MPH
rain 1hr
in
rain 24hr
in
rain mn
in
humidity
%
barometer
mb
20260905031558 79 0 0.0 0.0 0.00 0.00 0.00 78 1014.9
20260905030105 79 0 0.0 0.0 0.00 0.00 0.00 76 1014.9
20260905024557 80 0 0.0 0.0 0.00 0.00 0.00 75 1014.7
20260905023103 80 0 0.0 0.0 0.00 0.00 0.00 74 1014.7
20260905021603 81 0 0.0 0.0 0.00 0.00 0.00 73 1014.7
20260905014602 83 0 0.0 0.0 0.00 0.00 0.00 68 1014.5
20260905013059 84 0 0.0 0.0 0.00 0.00 0.00 66 1014.4
20260905011553 85 0 0.0 0.0 0.00 0.00 0.00 63 1014.4
20260905010107 87 0 0.0 0.0 0.00 0.00 0.00 61 1014.3
20260905004613 88 0 0.0 1.0 0.00 0.00 0.00 58 1014.1
20260905003057 90 0 0.0 0.0 0.00 0.00 0.00 56 1014.1
20260905001602 92 0 0.0 0.0 0.00 0.00 0.00 53 1013.9
20260904234602 95 0 0.0 6.0 0.00 0.00 0.00 49 1013.8
20260904233105 96 0 0.0 3.0 0.00 0.00 0.00 47 1013.7
20260904231558 97 158 0.0 4.0 0.00 0.00 0.00 48 1013.5
20260904230053 98 360 0.0 8.0 0.00 0.00 0.00 48 1013.3
20260904224558 98 0 0.0 7.0 0.00 0.00 0.00 47 1013.3
20260904223101 99 0 0.0 4.0 0.00 0.00 0.00 47 1013.4
20260904221559 100 139 1.0 7.0 0.00 0.00 0.00 46 1013.4
20260904220113 99 150 2.0 9.0 0.00 0.00 0.00 46 1013.4
20260904214601 99 0 1.0 7.0 0.00 0.00 0.00 47 1013.6
20260904213057 99 0 1.0 6.0 0.00 0.00 0.00 46 1013.8
20260904211607 99 12 1.0 6.0 0.00 0.00 0.00 45 1013.8
20260904210101 99 183 2.0 6.0 0.00 0.00 0.00 44 1013.9
20260904204557 98 0 0.0 5.0 0.00 0.00 0.00 46 1014.2
20260904203101 98 71 2.0 6.0 0.00 0.00 0.00 47 1014.4
20260904201602 98 92 2.0 7.0 0.00 0.00 0.00 48 1014.5
20260904200057 97 188 2.0 7.0 0.00 0.00 0.00 50 1014.7
20260904194606 98 0 2.0 12.0 0.00 0.00 0.00 51 1014.9
20260904193053 97 72 1.0 6.0 0.00 0.00 0.00 50 1015.1
20260904191557 97 147 2.0 7.0 0.00 0.00 0.00 50 1015.3
20260904190059 96 88 2.0 11.0 0.00 0.00 0.00 50 1015.5
20260904184558 96 195 0.0 9.0 0.00 0.00 0.00 54 1015.6
20260904183119 95 155 1.0 5.0 0.00 0.00 0.00 53 1015.9
20260904181557 96 105 2.0 9.0 0.00 0.00 0.00 52 1016.1
20260904180120 95 0 2.0 6.0 0.00 0.00 0.00 55 1016.0
20260904174608 95 144 2.0 9.0 0.00 0.00 0.00 53 1016.4
20260904173100 94 195 2.0 9.0 0.00 0.00 0.00 55 1016.5
20260904171557 94 186 0.0 6.0 0.00 0.00 0.00 55 1016.7
20260904170057 93 225 1.0 8.0 0.00 0.00 0.00 57 1017.0
20260904164558 92 0 0.0 6.0 0.00 0.00 0.00 58 1016.9
20260904163052 92 210 1.0 4.0 0.00 0.00 0.00 60 1017.0
20260904161623 91 190 2.0 5.0 0.00 0.00 0.00 60 1017.0
20260904160106 90 211 2.0 6.0 0.00 0.00 0.00 62 1017.0
20260904154559 89 196 1.0 5.0 0.00 0.00 0.00 65 1017.0
20260904153101 88 185 1.0 4.0 0.00 0.00 0.00 66 1017.0
20260904151558 87 0 0.0 3.0 0.00 0.00 0.00 68 1017.1
20260904150104 86 180 0.0 3.0 0.00 0.00 0.00 70 1017.0
20260904144604 83 192 0.0 2.0 0.00 0.00 0.00 75 1017.0
20260904143059 83 0 0.0 3.0 0.00 0.00 0.00 79 1016.8
20260904141558 80 215 0.0 2.0 0.00 0.00 0.00 82 1016.8
20260904140058 78 0 1.0 3.0 0.00 0.00 0.00 88 1016.8
20260904134601 76 0 0.0 0.0 0.00 0.00 0.00 92 1016.8
20260904133116 75 0 0.0 0.0 0.00 0.00 0.00 94 1016.7
20260904131559 74 0 0.0 0.0 0.00 0.00 0.00 94 1016.7
20260904130056 73 0 0.0 0.0 0.00 0.00 0.00 94 1016.6
20260904124555 72 0 0.0 0.0 0.00 0.00 0.00 93 1016.5
20260904123100 72 0 0.0 0.0 0.00 0.00 0.00 93 1016.3
20260904121554 72 0 0.0 0.0 0.00 0.00 0.00 93 1016.2
20260904114551 72 0 0.0 0.0 0.00 0.00 0.00 93 1016.0
20260904113105 72 0 0.0 0.0 0.00 0.00 0.00 92 1015.9
20260904111558 73 0 0.0 0.0 0.00 0.00 0.00 92 1015.8
20260904110105 73 0 0.0 0.0 0.00 0.00 0.00 92 1015.7
20260904104556 73 0 0.0 0.0 0.00 0.00 0.00 92 1015.7
20260904103058 73 0 0.0 0.0 0.00 0.00 0.00 92 1015.7
20260904101608 74 0 0.0 0.0 0.00 0.00 0.00 91 1015.7
20260904100056 74 0 0.0 0.0 0.00 0.00 0.00 91 1015.5
20260904094559 74 0 0.0 0.0 0.00 0.00 0.00 91 1015.6
20260904093057 74 0 0.0 0.0 0.00 0.00 0.00 90 1015.4
20260904091554 74 0 0.0 0.0 0.00 0.00 0.00 91 1015.3
20260904090051 74 0 0.0 0.0 0.00 0.00 0.00 90 1015.3
20260904084600 75 0 0.0 0.0 0.00 0.00 0.00 90 1015.2
20260904083106 75 0 0.0 0.0 0.00 0.00 0.00 89 1015.1
20260904081559 75 0 0.0 0.0 0.00 0.00 0.00 89 1015.1
20260904080105 75 0 0.0 0.0 0.00 0.00 0.00 89 1015.1
20260904074557 76 0 0.0 0.0 0.00 0.00 0.00 88 1015.0
20260904073103 76 0 0.0 0.0 0.00 0.00 0.00 88 1015.0
20260904071557 76 0 0.0 0.0 0.00 0.00 0.00 88 1015.0
20260904070059 76 0 0.0 0.0 0.00 0.00 0.00 87 1015.1
20260904064607 77 0 0.0 0.0 0.00 0.00 0.00 87 1015.1
20260904063122 77 0 0.0 1.0 0.00 0.00 0.00 87 1015.0
20260904061557 77 0 0.0 0.0 0.00 0.00 0.00 87 1015.1
20260904060121 77 0 0.0 0.0 0.00 0.00 0.00 87 1015.2
20260904054558 77 0 0.0 1.0 0.00 0.00 0.00 87 1015.2
20260904053058 76 0 0.0 0.0 0.00 0.00 0.00 88 1015.2
20260904051601 77 0 0.0 0.0 0.00 0.00 0.00 87 1015.1
20260904044555 77 0 0.0 0.0 0.00 0.00 0.00 86 1015.0
20260904043059 77 0 0.0 0.0 0.00 0.00 0.00 86 1014.9
20260904041552 78 0 0.0 0.0 0.00 0.00 0.00 85 1014.9
20260904040103 78 0 0.0 0.0 0.00 0.00 0.00 84 1015.0
20260904034558 79 0 0.0 0.0 0.00 0.00 0.00 83 1014.9
20260904033056 79 0 0.0 0.0 0.00 0.00 0.00 83 1014.9